User: anonymous   Login
Location: Unspecified
(0.0000°N, 0.0000°E)
Time: 05:44:33
(UTC+00:00)
Language:

OBJECT B - Orbit

View from above orbital plane
View from above orbital plane
View from above satellite
View from above satellite

Ground track
Ground track

The orbit is defined by the following mean orbital elements,

1 64088U          26145.65012286 +.00000000 +00000-0 +38073-3 0 00001
2 64088  97.4729 221.7247 0009564  93.4642 266.7686 15.18075325    01
Epoch (UTC): 25 May 2026 15:36:10
Eccentricity: 0.0009564
inclination: 97.4729°
perigee height: 505 km
apogee height: 518 km
right ascension of ascending node: 221.7247°
argument of perigee: 93.4642°
revolutions per day: 15.18075325
mean anomaly at epoch: 266.7686°

The dashed part of the orbit path shows where the satellite is in the earth's shadow,  

DLR